contact:dominique.lefevre@mio.osupytheas.fr, maurice.libes@osupytheas.fr, didier.mallarino@osupytheas.fr
Project:EMSO http://www.emso-fr.org/EMSO-France
Depth: 2436.0 m
Title:EMSO Ligure Ouest : Data MII capteur CSTAR
DateTime,Latitude,Longitude,Instrument_Serial,Reference_Counts,Signal_Counts,Corrected_Signal_raw_counts,Calculated_Beam_c_inverse_meters,Internal_thermistor_counts
DateTime,Latitude,Longitude,Instrument_Serial,Reference_Counts,Signal_Counts,Corrected_Signal_raw_counts,Calculated_Beam_c_inverse_meters,Internal_thermistor_counts
2022-02-25T00:02:54,42.805,6.029,CST-1368DR,4881,5990,13102,0.702,551
2022-02-25T00:05:56,42.805,6.029,CST-1368DR,4881,5991,13102,0.702,551
2022-02-25T00:08:58,42.805,6.029,CST-1368DR,4881,5989,13098,0.703,550
2022-02-25T00:11:59,42.805,6.029,CST-1368DR,4881,5990,13102,0.702,551
2022-02-25T00:15:01,42.805,6.029,CST-1368DR,4880,5990,13103,0.702,551
2022-02-25T00:18:02,42.805,6.029,CST-1368DR,4881,5988,13096,0.704,551
2022-02-25T00:21:04,42.805,6.029,CST-1368DR,4881,5990,13101,0.702,551
2022-02-25T00:24:06,42.805,6.029,CST-1368DR,4881,5990,13100,0.703,551
2022-02-25T00:27:07,42.805,6.029,CST-1368DR,4881,5989,13100,0.703,551
2022-02-25T00:30:09,42.805,6.029,CST-1368DR,4881,5990,13102,0.702,550
2022-02-25T00:33:10,42.805,6.029,CST-1368DR,4881,5989,13100,0.703,551
2022-02-25T00:36:12,42.805,6.029,CST-1368DR,4881,5990,13102,0.702,551
2022-02-25T00:39:13,42.805,6.029,CST-1368DR,4881,5989,13100,0.703,551
2022-02-25T00:42:15,42.805,6.029,CST-1368DR,4881,5991,13103,0.702,551
2022-02-25T00:45:17,42.805,6.029,CST-1368DR,4881,5991,13102,0.702,551
2022-02-25T00:48:18,42.805,6.029,CST-1368DR,4880,5990,13103,0.702,551
2022-02-25T00:51:20,42.805,6.029,CST-1368DR,4880,5990,13103,0.702,551
2022-02-25T00:54:21,42.805,6.029,CST-1368DR,4880,5989,13102,0.702,551
2022-02-25T00:57:23,42.805,6.029,CST-1368DR,4881,5991,13103,0.702,551
2022-02-25T01:00:24,42.805,6.029,CST-1368DR,4880,5990,13103,0.702,551
2022-02-25T01:03:26,42.805,6.029,CST-1368DR,4881,5991,13103,0.702,551
2022-02-25T01:06:28,42.805,6.029,CST-1368DR,4881,5991,13103,0.702,551
2022-02-25T01:09:29,42.805,6.029,CST-1368DR,4881,5991,13102,0.702,551
2022-02-25T01:12:31,42.805,6.029,CST-1368DR,4881,5990,13100,0.703,551
2022-02-25T01:15:32,42.805,6.029,CST-1368DR,4880,5990,13104,0.702,551
2022-02-25T01:18:34,42.805,6.029,CST-1368DR,4881,5990,13101,0.702,551
2022-02-25T01:21:36,42.805,6.029,CST-1368DR,4881,5989,13100,0.703,551
2022-02-25T01:24:37,42.805,6.029,CST-1368DR,4881,5990,13100,0.703,551
2022-02-25T01:27:39,42.805,6.029,CST-1368DR,4881,5991,13103,0.702,551
2022-02-25T01:30:40,42.805,6.029,CST-1368DR,4881,5991,13102,0.702,551
2022-02-25T01:33:42,42.805,6.029,CST-1368DR,4881,5990,13102,0.702,551
2022-02-25T01:36:43,42.805,6.029,CST-1368DR,4881,5991,13103,0.702,551
2022-02-25T01:39:45,42.805,6.029,CST-1368DR,4881,5991,13102,0.702,551
2022-02-25T01:42:47,42.805,6.029,CST-1368DR,4881,5991,13103,0.702,551
2022-02-25T01:45:48,42.805,6.029,CST-1368DR,4881,5991,13103,0.702,551
2022-02-25T01:48:50,42.805,6.029,CST-1368DR,4881,5991,13103,0.702,551
2022-02-25T01:51:51,42.805,6.029,CST-1368DR,4881,5991,13103,0.702,551
2022-02-25T01:54:53,42.805,6.029,CST-1368DR,4881,5992,13105,0.701,551
2022-02-25T01:57:55,42.805,6.029,CST-1368DR,4880,5986,13096,0.704,551
2022-02-25T02:00:56,42.805,6.029,CST-1368DR,4881,5992,13105,0.701,551
2022-02-25T02:03:58,42.805,6.029,CST-1368DR,4881,5990,13102,0.702,551
2022-02-25T02:06:59,42.805,6.029,CST-1368DR,4880,5990,13103,0.702,551
2022-02-25T02:10:01,42.805,6.029,CST-1368DR,4880,5991,13105,0.701,551
2022-02-25T02:13:02,42.805,6.029,CST-1368DR,4881,5990,13100,0.703,551
2022-02-25T02:16:04,42.805,6.029,CST-1368DR,4880,5990,13103,0.702,551
2022-02-25T02:19:06,42.805,6.029,CST-1368DR,4881,5991,13102,0.702,551
2022-02-25T02:22:07,42.805,6.029,CST-1368DR,4880,5990,13103,0.702,551
2022-02-25T02:25:09,42.805,6.029,CST-1368DR,4880,5989,13101,0.702,551
2022-02-25T02:28:10,42.805,6.029,CST-1368DR,4880,5989,13102,0.702,551
2022-02-25T02:31:12,42.805,6.029,CST-1368DR,4880,5990,13103,0.702,551
2022-02-25T02:34:13,42.805,6.029,CST-1368DR,4880,5990,13103,0.702,551
2022-02-25T02:37:15,42.805,6.029,CST-1368DR,4880,5990,13104,0.702,551
2022-02-25T02:40:17,42.805,6.029,CST-1368DR,4880,5990,13103,0.702,551
2022-02-25T02:43:18,42.805,6.029,CST-1368DR,4880,5987,13098,0.703,551
2022-02-25T02:46:20,42.805,6.029,CST-1368DR,4880,5988,13100,0.703,551
2022-02-25T02:49:21,42.805,6.029,CST-1368DR,4880,5988,13100,0.703,551
2022-02-25T02:52:23,42.805,6.029,CST-1368DR,4880,5989,13102,0.702,551
2022-02-25T02:55:25,42.805,6.029,CST-1368DR,4880,5990,13103,0.702,551
2022-02-25T02:58:26,42.805,6.029,CST-1368DR,4880,5986,13095,0.704,551
2022-02-25T03:01:28,42.805,6.029,CST-1368DR,4880,5989,13101,0.702,551
2022-02-25T03:04:29,42.805,6.029,CST-1368DR,4880,5989,13101,0.702,551
2022-02-25T03:07:31,42.805,6.029,CST-1368DR,4880,5990,13103,0.702,551
2022-02-25T03:10:32,42.805,6.029,CST-1368DR,4880,5989,13101,0.702,551
2022-02-25T03:13:34,42.805,6.029,CST-1368DR,4880,5989,13102,0.702,551
2022-02-25T03:16:36,42.805,6.029,CST-1368DR,4880,5990,13103,0.702,551
2022-02-25T03:19:37,42.805,6.029,CST-1368DR,4880,5989,13102,0.702,551
2022-02-25T03:22:39,42.805,6.029,CST-1368DR,4880,5990,13103,0.702,551
2022-02-25T03:25:40,42.805,6.029,CST-1368DR,4880,5989,13102,0.702,551
2022-02-25T03:28:42,42.805,6.029,CST-1368DR,4880,5990,13103,0.702,551
2022-02-25T03:31:43,42.805,6.029,CST-1368DR,4880,5989,13102,0.702,551
2022-02-25T03:34:45,42.805,6.029,CST-1368DR,4880,5989,13102,0.702,551
2022-02-25T03:37:47,42.805,6.029,CST-1368DR,4880,5991,13105,0.701,551
2022-02-25T03:40:48,42.805,6.029,CST-1368DR,4880,5989,13102,0.702,551
2022-02-25T03:43:50,42.805,6.029,CST-1368DR,4880,5990,13103,0.702,551
2022-02-25T03:46:51,42.805,6.029,CST-1368DR,4880,5990,13103,0.702,551
2022-02-25T03:49:53,42.805,6.029,CST-1368DR,4880,5989,13102,0.702,551
2022-02-25T03:52:55,42.805,6.029,CST-1368DR,4880,5988,13099,0.703,551
2022-02-25T03:55:56,42.805,6.029,CST-1368DR,4880,5989,13102,0.702,551
2022-02-25T03:58:58,42.805,6.029,CST-1368DR,4880,5989,13101,0.702,551
2022-02-25T04:01:59,42.805,6.029,CST-1368DR,4880,5989,13101,0.702,551
2022-02-25T04:05:01,42.805,6.029,CST-1368DR,4880,5988,13100,0.703,551
2022-02-25T04:08:02,42.805,6.029,CST-1368DR,4880,5989,13101,0.702,551
2022-02-25T04:11:04,42.805,6.029,CST-1368DR,4880,5989,13102,0.702,551
2022-02-25T04:14:06,42.805,6.029,CST-1368DR,4880,5989,13102,0.702,551
2022-02-25T04:17:07,42.805,6.029,CST-1368DR,4880,5989,13102,0.702,551
2022-02-25T04:20:09,42.805,6.029,CST-1368DR,4880,5986,13096,0.704,551
2022-02-25T04:23:10,42.805,6.029,CST-1368DR,4880,5988,13099,0.703,551
2022-02-25T04:26:12,42.805,6.029,CST-1368DR,4880,5988,13099,0.703,551
2022-02-25T04:29:14,42.805,6.029,CST-1368DR,4880,5988,13099,0.703,551
2022-02-25T04:32:15,42.805,6.029,CST-1368DR,4880,5987,13098,0.703,551
2022-02-25T04:35:17,42.805,6.029,CST-1368DR,4880,5988,13100,0.703,551
2022-02-25T04:38:18,42.805,6.029,CST-1368DR,4880,5988,13099,0.703,551
2022-02-25T04:41:20,42.805,6.029,CST-1368DR,4880,5988,13099,0.703,551
2022-02-25T04:44:21,42.805,6.029,CST-1368DR,4880,5988,13099,0.703,551
2022-02-25T04:47:23,42.805,6.029,CST-1368DR,4880,5989,13101,0.702,551
2022-02-25T04:50:25,42.805,6.029,CST-1368DR,4880,5989,13102,0.702,551
2022-02-25T04:53:26,42.805,6.029,CST-1368DR,4880,5987,13097,0.704,551
2022-02-25T04:56:28,42.805,6.029,CST-1368DR,4880,5988,13098,0.703,551
2022-02-25T04:59:29,42.805,6.029,CST-1368DR,4880,5989,13102,0.702,551
2022-02-25T05:02:31,42.805,6.029,CST-1368DR,4880,5988,13100,0.703,551
2022-02-25T05:05:33,42.805,6.029,CST-1368DR,4880,5988,13099,0.703,551
2022-02-25T05:08:34,42.805,6.029,CST-1368DR,4880,5987,13098,0.703,551
2022-02-25T05:11:36,42.805,6.029,CST-1368DR,4880,5988,13100,0.703,551
2022-02-25T05:14:37,42.805,6.029,CST-1368DR,4880,5984,13090,0.706,551
2022-02-25T05:17:39,42.805,6.029,CST-1368DR,4880,5989,13102,0.702,551
2022-02-25T05:20:40,42.805,6.029,CST-1368DR,4880,5986,13095,0.704,551
2022-02-25T05:23:42,42.805,6.029,CST-1368DR,4880,5989,13101,0.702,551
2022-02-25T05:26:44,42.805,6.029,CST-1368DR,4880,5989,13101,0.702,551
2022-02-25T05:29:45,42.805,6.029,CST-1368DR,4880,5989,13101,0.702,551
2022-02-25T05:32:47,42.805,6.029,CST-1368DR,4880,5989,13101,0.702,551
2022-02-25T05:35:48,42.805,6.029,CST-1368DR,4880,5988,13100,0.703,551
2022-02-25T05:38:50,42.805,6.029,CST-1368DR,4880,5989,13101,0.702,551
2022-02-25T05:41:51,42.805,6.029,CST-1368DR,4880,5989,13101,0.702,551
2022-02-25T05:44:53,42.805,6.029,CST-1368DR,4880,5988,13099,0.703,551
2022-02-25T05:47:55,42.805,6.029,CST-1368DR,4880,5989,13102,0.702,551
2022-02-25T05:50:56,42.805,6.029,CST-1368DR,4880,5989,13101,0.702,551
2022-02-25T05:53:58,42.805,6.029,CST-1368DR,4880,5988,13098,0.703,551
2022-02-25T05:56:59,42.805,6.029,CST-1368DR,4880,5989,13102,0.702,551
2022-02-25T06:00:01,42.805,6.029,CST-1368DR,4880,5989,13101,0.702,551
2022-02-25T06:03:02,42.805,6.029,CST-1368DR,4880,5989,13102,0.702,551
2022-02-25T06:06:04,42.805,6.029,CST-1368DR,4880,5989,13101,0.702,551
2022-02-25T06:09:06,42.805,6.029,CST-1368DR,4880,5988,13100,0.703,551
2022-02-25T06:12:07,42.805,6.029,CST-1368DR,4880,5988,13099,0.703,551
2022-02-25T06:15:09,42.805,6.029,CST-1368DR,4880,5988,13099,0.703,551
2022-02-25T06:18:10,42.805,6.029,CST-1368DR,4880,5988,13098,0.703,551
2022-02-25T06:21:12,42.805,6.029,CST-1368DR,4880,5988,13098,0.703,551
2022-02-25T06:24:14,42.805,6.029,CST-1368DR,4880,5989,13101,0.702,551
2022-02-25T06:27:15,42.805,6.029,CST-1368DR,4880,5988,13099,0.703,551
2022-02-25T06:30:17,42.805,6.029,CST-1368DR,4880,5988,13100,0.703,551
2022-02-25T06:33:18,42.805,6.029,CST-1368DR,4880,5988,13099,0.703,551
2022-02-25T06:36:20,42.805,6.029,CST-1368DR,4880,5986,13096,0.704,551
2022-02-25T06:39:21,42.805,6.029,CST-1368DR,4880,5988,13100,0.703,551
2022-02-25T06:42:23,42.805,6.029,CST-1368DR,4880,5988,13100,0.703,551
2022-02-25T06:45:25,42.805,6.029,CST-1368DR,4880,5985,13092,0.705,550
2022-02-25T06:48:26,42.805,6.029,CST-1368DR,4880,5987,13098,0.703,551
2022-02-25T06:51:28,42.805,6.029,CST-1368DR,4880,5989,13101,0.702,551
2022-02-25T06:54:29,42.805,6.029,CST-1368DR,4880,5988,13098,0.703,551
2022-02-25T06:57:31,42.805,6.029,CST-1368DR,4880,5989,13101,0.702,551
2022-02-25T07:00:33,42.805,6.029,CST-1368DR,4880,5988,13100,0.703,551
2022-02-25T07:03:34,42.805,6.029,CST-1368DR,4880,5988,13100,0.703,551
2022-02-25T07:06:36,42.805,6.029,CST-1368DR,4880,5989,13102,0.702,551
2022-02-25T07:09:37,42.805,6.029,CST-1368DR,4880,5989,13101,0.702,551
2022-02-25T07:12:39,42.805,6.029,CST-1368DR,4880,5989,13101,0.702,551
2022-02-25T07:15:40,42.805,6.029,CST-1368DR,4880,5988,13099,0.703,551
2022-02-25T07:18:42,42.805,6.029,CST-1368DR,4880,5989,13101,0.702,551
2022-02-25T07:21:44,42.805,6.029,CST-1368DR,4880,5988,13099,0.703,551
2022-02-25T07:24:45,42.805,6.029,CST-1368DR,4880,5988,13099,0.703,551
2022-02-25T07:27:47,42.805,6.029,CST-1368DR,4880,5984,13091,0.705,551
2022-02-25T07:30:48,42.805,6.029,CST-1368DR,4880,5988,13100,0.703,551
2022-02-25T07:33:50,42.805,6.029,CST-1368DR,4880,5986,13095,0.704,551
2022-02-25T07:36:51,42.805,6.029,CST-1368DR,4880,5987,13097,0.704,551
2022-02-25T07:39:53,42.805,6.029,CST-1368DR,4880,5987,13097,0.704,551
2022-02-25T07:42:55,42.805,6.029,CST-1368DR,4880,5988,13099,0.703,551
2022-02-25T07:45:56,42.805,6.029,CST-1368DR,4880,5988,13099,0.703,551
2022-02-25T07:48:58,42.805,6.029,CST-1368DR,4880,5988,13099,0.703,551
2022-02-25T07:51:59,42.805,6.029,CST-1368DR,4880,5988,13099,0.703,551
2022-02-25T07:55:01,42.805,6.029,CST-1368DR,4880,5988,13098,0.703,551
2022-02-25T07:58:03,42.805,6.029,CST-1368DR,4880,5988,13100,0.703,551
2022-02-25T08:01:04,42.805,6.029,CST-1368DR,4880,5987,13097,0.704,551
2022-02-25T08:04:06,42.805,6.029,CST-1368DR,4880,5988,13099,0.703,551
2022-02-25T08:07:07,42.805,6.029,CST-1368DR,4880,5987,13098,0.703,551
2022-02-25T08:10:09,42.805,6.029,CST-1368DR,4880,5988,13098,0.703,551
2022-02-25T08:13:10,42.805,6.029,CST-1368DR,4880,5988,13099,0.703,551
2022-02-25T08:16:12,42.805,6.029,CST-1368DR,4880,5988,13098,0.703,551
2022-02-25T08:19:14,42.805,6.029,CST-1368DR,4880,5988,13099,0.703,551
2022-02-25T08:22:15,42.805,6.029,CST-1368DR,4880,5988,13098,0.703,551
2022-02-25T08:25:17,42.805,6.029,CST-1368DR,4880,5987,13098,0.703,551
2022-02-25T08:28:18,42.805,6.029,CST-1368DR,4880,5989,13101,0.702,551
2022-02-25T08:31:20,42.805,6.029,CST-1368DR,4880,5986,13095,0.704,550
2022-02-25T08:34:22,42.805,6.029,CST-1368DR,4880,5986,13096,0.704,551
2022-02-25T08:37:23,42.805,6.029,CST-1368DR,4880,5988,13098,0.703,551
2022-02-25T08:40:25,42.805,6.029,CST-1368DR,4880,5980,13082,0.708,551
2022-02-25T08:43:26,42.805,6.029,CST-1368DR,4880,5987,13097,0.704,551
2022-02-25T08:46:28,42.805,6.029,CST-1368DR,4880,5985,13093,0.705,551
2022-02-25T08:49:29,42.805,6.029,CST-1368DR,4880,5985,13092,0.705,551
2022-02-25T08:52:31,42.805,6.029,CST-1368DR,4880,5988,13100,0.703,551
2022-02-25T08:55:33,42.805,6.029,CST-1368DR,4880,5988,13099,0.703,551
2022-02-25T08:58:34,42.805,6.029,CST-1368DR,4880,5986,13096,0.704,551
2022-02-25T09:01:36,42.805,6.029,CST-1368DR,4880,5986,13094,0.705,551
2022-02-25T09:04:37,42.805,6.029,CST-1368DR,4880,5986,13096,0.704,551
2022-02-25T09:07:39,42.805,6.029,CST-1368DR,4880,5987,13098,0.703,551
2022-02-25T09:10:40,42.805,6.029,CST-1368DR,4880,5987,13097,0.704,551
2022-02-25T09:13:42,42.805,6.029,CST-1368DR,4880,5987,13097,0.704,551
2022-02-25T09:16:44,42.805,6.029,CST-1368DR,4880,5988,13098,0.703,551
2022-02-25T09:19:45,42.805,6.029,CST-1368DR,4880,5988,13098,0.703,551
2022-02-25T09:22:47,42.805,6.029,CST-1368DR,4880,5987,13098,0.703,551
2022-02-25T09:25:48,42.805,6.029,CST-1368DR,4880,5987,13098,0.703,551
2022-02-25T09:28:50,42.805,6.029,CST-1368DR,4880,5988,13098,0.703,551
2022-02-25T09:31:52,42.805,6.029,CST-1368DR,4880,5987,13097,0.704,551
2022-02-25T09:34:53,42.805,6.029,CST-1368DR,4880,5988,13098,0.703,551
2022-02-25T09:37:55,42.805,6.029,CST-1368DR,4880,5987,13097,0.704,551
2022-02-25T09:40:56,42.805,6.029,CST-1368DR,4880,5986,13096,0.704,551
2022-02-25T09:43:58,42.805,6.029,CST-1368DR,4880,5987,13097,0.704,551
2022-02-25T09:46:59,42.805,6.029,CST-1368DR,4880,5987,13098,0.703,551
2022-02-25T09:50:01,42.805,6.029,CST-1368DR,4880,5988,13099,0.703,551
2022-02-25T09:53:03,42.805,6.029,CST-1368DR,4880,5986,13095,0.704,551
2022-02-25T09:56:04,42.805,6.029,CST-1368DR,4880,5988,13099,0.703,550
2022-02-25T09:59:06,42.805,6.029,CST-1368DR,4880,5988,13100,0.703,551
2022-02-25T10:02:07,42.805,6.029,CST-1368DR,4880,5988,13099,0.703,551
2022-02-25T10:05:09,42.805,6.029,CST-1368DR,4880,5987,13098,0.703,551
2022-02-25T10:08:11,42.805,6.029,CST-1368DR,4880,5989,13101,0.702,551
2022-02-25T10:11:12,42.805,6.029,CST-1368DR,4880,5987,13098,0.703,551
2022-02-25T10:14:14,42.805,6.029,CST-1368DR,4880,5987,13097,0.704,551
2022-02-25T10:17:15,42.805,6.029,CST-1368DR,4880,5987,13097,0.704,551
2022-02-25T10:20:17,42.805,6.029,CST-1368DR,4880,5987,13098,0.703,551
2022-02-25T10:23:18,42.805,6.029,CST-1368DR,4880,5987,13098,0.703,551
2022-02-25T10:26:20,42.805,6.029,CST-1368DR,4880,5988,13099,0.703,551
2022-02-25T10:29:22,42.805,6.029,CST-1368DR,4880,5989,13101,0.702,551
2022-02-25T10:32:23,42.805,6.029,CST-1368DR,4880,5988,13099,0.703,551
2022-02-25T10:35:25,42.805,6.029,CST-1368DR,4880,5989,13101,0.702,551
2022-02-25T10:38:26,42.805,6.029,CST-1368DR,4880,5987,13097,0.704,551
2022-02-25T10:41:28,42.805,6.029,CST-1368DR,4880,5988,13100,0.703,551
2022-02-25T10:44:29,42.805,6.029,CST-1368DR,4880,5989,13102,0.702,551
2022-02-25T10:47:31,42.805,6.029,CST-1368DR,4880,5988,13099,0.703,551
2022-02-25T10:50:33,42.805,6.029,CST-1368DR,4880,5988,13098,0.703,551
2022-02-25T10:53:34,42.805,6.029,CST-1368DR,4880,5989,13101,0.702,551
2022-02-25T10:56:36,42.805,6.029,CST-1368DR,4880,5989,13101,0.702,551
2022-02-25T10:59:37,42.805,6.029,CST-1368DR,4880,5989,13101,0.702,551
2022-02-25T11:02:39,42.805,6.029,CST-1368DR,4880,5988,13099,0.703,551
2022-02-25T11:05:41,42.805,6.029,CST-1368DR,4880,5989,13102,0.702,551
2022-02-25T11:08:42,42.805,6.029,CST-1368DR,4880,5988,13098,0.703,551
2022-02-25T11:11:44,42.805,6.029,CST-1368DR,4880,5989,13101,0.702,551
2022-02-25T11:14:45,42.805,6.029,CST-1368DR,4880,5988,13099,0.703,551
2022-02-25T11:17:47,42.805,6.029,CST-1368DR,4880,5987,13098,0.703,551
2022-02-25T11:20:48,42.805,6.029,CST-1368DR,4880,5988,13099,0.703,551
2022-02-25T11:23:50,42.805,6.029,CST-1368DR,4880,5987,13097,0.704,551
2022-02-25T11:26:52,42.805,6.029,CST-1368DR,4880,5986,13096,0.704,551
2022-02-25T11:29:53,42.805,6.029,CST-1368DR,4880,5987,13098,0.703,551
2022-02-25T11:32:55,42.805,6.029,CST-1368DR,4880,5987,13097,0.704,551
2022-02-25T11:35:56,42.805,6.029,CST-1368DR,4880,5986,13096,0.704,551
2022-02-25T11:38:58,42.805,6.029,CST-1368DR,4880,5987,13097,0.704,551
2022-02-25T11:42:00,42.805,6.029,CST-1368DR,4880,5988,13099,0.703,551
2022-02-25T11:45:01,42.805,6.029,CST-1368DR,4880,5988,13099,0.703,551
2022-02-25T11:48:03,42.805,6.029,CST-1368DR,4880,5987,13097,0.704,551
2022-02-25T11:51:04,42.805,6.029,CST-1368DR,4880,5988,13098,0.703,550
2022-02-25T11:54:06,42.805,6.029,CST-1368DR,4880,5987,13098,0.703,551
2022-02-25T11:57:07,42.805,6.029,CST-1368DR,4880,5987,13098,0.703,551
2022-02-25T12:00:09,42.805,6.029,CST-1368DR,4880,5988,13099,0.703,551
2022-02-25T12:03:11,42.805,6.029,CST-1368DR,4880,5987,13097,0.704,551
2022-02-25T12:06:12,42.805,6.029,CST-1368DR,4880,5988,13099,0.703,551
2022-02-25T12:09:14,42.805,6.029,CST-1368DR,4880,5988,13099,0.703,551
2022-02-25T12:12:15,42.805,6.029,CST-1368DR,4880,5988,13099,0.703,551
2022-02-25T12:15:17,42.805,6.029,CST-1368DR,4880,5986,13096,0.704,551
2022-02-25T12:18:18,42.805,6.029,CST-1368DR,4880,5987,13097,0.704,551
2022-02-25T12:21:20,42.805,6.029,CST-1368DR,4880,5987,13097,0.704,551
2022-02-25T12:24:22,42.805,6.029,CST-1368DR,4880,5985,13093,0.705,551
2022-02-25T12:27:23,42.805,6.029,CST-1368DR,4880,5989,13101,0.702,551
2022-02-25T12:30:25,42.805,6.029,CST-1368DR,4880,5988,13099,0.703,551
2022-02-25T12:33:26,42.805,6.029,CST-1368DR,4880,5988,13099,0.703,551
2022-02-25T12:36:28,42.805,6.029,CST-1368DR,4880,5988,13100,0.703,551
2022-02-25T12:39:30,42.805,6.029,CST-1368DR,4880,5988,13099,0.703,551
2022-02-25T12:42:31,42.805,6.029,CST-1368DR,4880,5988,13099,0.703,551
2022-02-25T12:45:33,42.805,6.029,CST-1368DR,4880,5988,13098,0.703,551
2022-02-25T12:48:34,42.805,6.029,CST-1368DR,4880,5987,13097,0.704,551
2022-02-25T12:51:36,42.805,6.029,CST-1368DR,4880,5983,13089,0.706,551
2022-02-25T12:54:37,42.805,6.029,CST-1368DR,4880,5988,13099,0.703,551
2022-02-25T12:57:39,42.805,6.029,CST-1368DR,4880,5987,13098,0.703,551
2022-02-25T13:00:41,42.805,6.029,CST-1368DR,4880,5986,13095,0.704,551
2022-02-25T13:03:42,42.805,6.029,CST-1368DR,4880,5983,13087,0.707,551
2022-02-25T13:06:44,42.805,6.029,CST-1368DR,4880,5987,13098,0.703,551
2022-02-25T13:09:45,42.805,6.029,CST-1368DR,4880,5987,13098,0.703,551
2022-02-25T13:12:47,42.805,6.029,CST-1368DR,4880,5987,13098,0.703,551
2022-02-25T13:15:48,42.805,6.029,CST-1368DR,4880,5984,13091,0.705,551
2022-02-25T13:18:50,42.805,6.029,CST-1368DR,4880,5985,13092,0.705,551
2022-02-25T13:21:52,42.805,6.029,CST-1368DR,4880,5986,13096,0.704,551
2022-02-25T13:24:53,42.805,6.029,CST-1368DR,4880,5987,13097,0.704,551
2022-02-25T13:27:55,42.805,6.029,CST-1368DR,4880,5981,13084,0.708,551
2022-02-25T13:30:56,42.805,6.029,CST-1368DR,4880,5980,13081,0.709,551
2022-02-25T13:33:58,42.805,6.029,CST-1368DR,4880,5981,13083,0.708,551
2022-02-25T13:37:00,42.805,6.029,CST-1368DR,4879,5981,13086,0.707,551
2022-02-25T13:40:01,42.805,6.029,CST-1368DR,4880,5987,13097,0.704,551
2022-02-25T13:43:03,42.805,6.029,CST-1368DR,4880,5984,13090,0.706,551
2022-02-25T13:46:04,42.805,6.029,CST-1368DR,4880,5979,13079,0.709,551
2022-02-25T13:49:06,42.805,6.029,CST-1368DR,4880,5980,13082,0.708,551
2022-02-25T13:52:07,42.805,6.029,CST-1368DR,4880,5980,13081,0.709,551
2022-02-25T13:55:09,42.805,6.029,CST-1368DR,4880,5977,13076,0.710,551
2022-02-25T13:58:11,42.805,6.029,CST-1368DR,4880,5974,13069,0.712,551
2022-02-25T14:01:12,42.805,6.029,CST-1368DR,4879,5975,13074,0.711,551
2022-02-25T14:04:14,42.805,6.029,CST-1368DR,4879,5977,13078,0.709,551
2022-02-25T14:07:15,42.805,6.029,CST-1368DR,4879,5975,13074,0.711,551
2022-02-25T14:10:17,42.805,6.029,CST-1368DR,4880,5980,13082,0.708,551
2022-02-25T14:13:18,42.805,6.029,CST-1368DR,4879,5976,13076,0.710,551
2022-02-25T14:16:20,42.805,6.029,CST-1368DR,4879,5976,13076,0.710,551
2022-02-25T14:19:22,42.805,6.029,CST-1368DR,4879,5977,13078,0.709,551
2022-02-25T14:22:23,42.805,6.029,CST-1368DR,4879,5975,13073,0.711,551
2022-02-25T14:25:25,42.805,6.029,CST-1368DR,4879,5976,13075,0.710,551
2022-02-25T14:28:26,42.805,6.029,CST-1368DR,4879,5974,13072,0.711,551
2022-02-25T14:31:28,42.805,6.029,CST-1368DR,4879,5976,13076,0.710,551
2022-02-25T14:34:30,42.805,6.029,CST-1368DR,4879,5975,13073,0.711,551
2022-02-25T14:37:31,42.805,6.029,CST-1368DR,4879,5975,13073,0.711,551
2022-02-25T14:40:33,42.805,6.029,CST-1368DR,4879,5975,13072,0.711,551
2022-02-25T14:43:34,42.805,6.029,CST-1368DR,4879,5975,13074,0.711,551
2022-02-25T14:46:36,42.805,6.029,CST-1368DR,4879,5975,13073,0.711,551
2022-02-25T14:49:37,42.805,6.029,CST-1368DR,4879,5974,13072,0.711,551
2022-02-25T14:52:39,42.805,6.029,CST-1368DR,4879,5976,13075,0.710,551
2022-02-25T14:55:41,42.805,6.029,CST-1368DR,4879,5974,13072,0.711,551
2022-02-25T14:58:42,42.805,6.029,CST-1368DR,4879,5977,13077,0.710,551
2022-02-25T15:01:44,42.805,6.029,CST-1368DR,4879,5975,13074,0.711,551
2022-02-25T15:04:45,42.805,6.029,CST-1368DR,4879,5975,13074,0.711,551
2022-02-25T15:07:47,42.805,6.029,CST-1368DR,4879,5973,13070,0.712,551
2022-02-25T15:10:49,42.805,6.029,CST-1368DR,4879,5976,13075,0.710,551
2022-02-25T15:13:50,42.805,6.029,CST-1368DR,4879,5976,13075,0.710,551
2022-02-25T15:16:52,42.805,6.029,CST-1368DR,4879,5976,13076,0.710,551
2022-02-25T15:19:53,42.805,6.029,CST-1368DR,4879,5975,13074,0.711,551
2022-02-25T15:22:55,42.805,6.029,CST-1368DR,4879,5975,13072,0.711,551
2022-02-25T15:25:56,42.805,6.029,CST-1368DR,4879,5975,13073,0.711,551
2022-02-25T15:28:58,42.805,6.029,CST-1368DR,4879,5974,13071,0.712,551
2022-02-25T15:32:00,42.805,6.029,CST-1368DR,4879,5978,13079,0.709,551
2022-02-25T15:35:01,42.805,6.029,CST-1368DR,4879,5976,13075,0.710,551
2022-02-25T15:38:03,42.805,6.029,CST-1368DR,4879,5975,13072,0.711,551
2022-02-25T15:41:04,42.805,6.029,CST-1368DR,4879,5974,13070,0.712,551
2022-02-25T15:44:06,42.805,6.029,CST-1368DR,4879,5975,13074,0.711,551
2022-02-25T15:47:08,42.805,6.029,CST-1368DR,4879,5976,13076,0.710,551
2022-02-25T15:50:09,42.805,6.029,CST-1368DR,4879,5977,13077,0.710,551
2022-02-25T15:53:11,42.805,6.029,CST-1368DR,4879,5973,13070,0.712,551
2022-02-25T15:56:12,42.805,6.029,CST-1368DR,4879,5975,13073,0.711,551
2022-02-25T15:59:14,42.805,6.029,CST-1368DR,4879,5975,13074,0.711,551
2022-02-25T16:02:15,42.805,6.029,CST-1368DR,4879,5974,13072,0.711,551
2022-02-25T16:05:17,42.805,6.029,CST-1368DR,4879,5975,13074,0.711,551
2022-02-25T16:08:19,42.805,6.029,CST-1368DR,4879,5972,13067,0.713,551
2022-02-25T16:11:20,42.805,6.029,CST-1368DR,4879,5975,13074,0.711,551
2022-02-25T16:14:22,42.805,6.029,CST-1368DR,4879,5974,13071,0.712,551
2022-02-25T16:17:23,42.805,6.029,CST-1368DR,4879,5976,13075,0.710,551
2022-02-25T16:20:25,42.805,6.029,CST-1368DR,4879,5976,13075,0.710,551
2022-02-25T16:23:26,42.805,6.029,CST-1368DR,4879,5975,13074,0.711,551
2022-02-25T16:26:28,42.805,6.029,CST-1368DR,4879,5976,13075,0.710,551
2022-02-25T16:29:30,42.805,6.029,CST-1368DR,4879,5973,13069,0.712,551
2022-02-25T16:32:31,42.805,6.029,CST-1368DR,4879,5975,13074,0.711,551
2022-02-25T16:35:33,42.805,6.029,CST-1368DR,4879,5976,13075,0.710,551
2022-02-25T16:38:34,42.805,6.029,CST-1368DR,4879,5975,13072,0.711,551
2022-02-25T16:41:36,42.805,6.029,CST-1368DR,4879,5974,13071,0.712,551
2022-02-25T16:44:38,42.805,6.029,CST-1368DR,4879,5975,13074,0.711,551
2022-02-25T16:47:39,42.805,6.029,CST-1368DR,4879,5988,13101,0.702,551
2022-02-25T16:50:41,42.805,6.029,CST-1368DR,4879,5981,13086,0.707,551
2022-02-25T16:53:42,42.805,6.029,CST-1368DR,4879,5974,13072,0.711,551